Weather in Sakon Nakhon

Thailand     17°09′56″N   104°09′01″E
temp.,
°C
wind,
m/s
gust,
m/s
humid.,
%
clouds,
%
prec.,
mm/h
press.,
hPa
HPBL,
m
12 april, mon
mon1201:00+26ese496376 0.0 1012308
04:00+24ese2776100 0.8 1012201
07:00+25ese4869100 1.8 1014316
10:00+33ese344173 0.0 10141193
13:00+38s113041 0.0 10102665
16:00+37wsw543180 0.0 10071659
19:00+32sw354142 0.0 1008118
22:00+31se114694 0.0 101123
13 april, tue
tue1301:00+30se355087 0.0 1010199
04:00+27ese356462 0.0 1009142
07:00+28ese35597 0.0 1011225
10:00+35sse333885 0.0 10111516
13:00+39ssw222897 0.0 10083392
16:00+37w542947 0.0 10041884
19:00+30wsw6115099 0.8 1007277
22:00+28nne226389 1.6 101053
14 april, wed
wed1401:00+25sse227697 6.3 101038
04:00+25se247974 1.6 1009121
07:00+26ese347672 1.6 1010224
10:00+32sse225194 0.0 10121127
13:00+37wnw333560 0.0 10082339
16:00+35w4438100 0.0 10041204
19:00+30se345766 0.4 100685
22:00+26ese6127880 1.9 1010433
15 april, thu
thu1501:00+24se3683100 3.5 1009236
04:00+25e2385100 1.9 1009189
07:00+25ese4786100 1.9 1011406
10:00+29ese4564100 0.3 1012828
13:00+32sse3347100 0.3 10091501
16:00+34s2243100 0.0 10071847
19:00+30e3656100 0.1 1008274
22:00+26ese3676100 0.9 1011204
16 april, fri
fri1601:00+25ese2484100 2.8 1010158
04:00+24ese1286100 1.1 100979
07:00+25ese2381100 1.6 1011200
10:00+31ese225785 0.1 10131017
13:00+27ssw4474100 8.1 1011442
16:00+24nne3588100 9.9 1009255
19:00+24e1281100 10.0 101149
22:00+24ese3884100 0.2 1013356